sat.trackr.live / text

‹ back to catalog

STARLINK-34193

NORAD 64011 · 2025-101T

PAYLOAD ACTIVE UNKNOWN

§ Identity

Operator
Country
US
Launch date
2025-05-14
Launch site
AFETR
Launch vehicle
Mass (kg)
RCS (m²)

Purposes: comms

External: N2YO · Heavens-Above · Gunter

§ Orbital elements

Epoch: 2026-09-20T13:11:54.777984Z

Period
94.27 min
Inclination
42.9998°
Eccentricity
0.0001260
Mean motion
15.27589408 rev/d
Perigee alt
482.2 km
Apogee alt
483.9 km
Semi-major
6,861.2 km
B*
5.2263e-4
RAAN
337.7439°
Arg perigee
276.3963°
Mean anomaly
83.6745°
Rev number
7,685

§ Raw data

STARLINK-341931 64011U 25101T   26263.54993956  .00014151  00000+0  52263-3 0  99922 64011  42.9998 337.7439 0001260 276.3963  83.6745 15.27589408 76854

JSON: /api/v1/satellites/64011 · /tle

For live sub-satellite position, see the globe view (requires WebGL).

§ Visibility from observer

Set your observer location to see the next 7 days of passes ≥ 10°. The values pass through the URL so the page stays shareable.

No JS? Fill the form by hand. The geolocation button needs JavaScript.